Home > Weather > Nîmes > Past weeks

Flag for France Past Weather in Nîmes, Languedoc-Roussillon, France — Yesterday and Last 2 Weeks

Now
72 °F

Clear.


Feels Like: 69 °F
Forecast: 66 / 92 °F
Wind: 3 mph from North

Location: Nimes / Garons

Current Time: Aug 28, 2016 at 10:59:17 PM

Latest Report: Aug 28, 2016 at 10:30 PM


Visibility: 10 mi

Pressure: 30.09 "Hg

Humidity: 88%

Dew Point: 68 °F

Location of NîmesLocation

Past Weather in Nîmes — Graph

°F

Nîmes Temperature Yesterday

Maximum temperature yesterday: 88 °F (at 12:30 PM)
Minimum temperature yesterday: 66 °F (at 4:30 AM)
Average temperature yesterday: 78 °F

High & Low Weather Summary for the Past Weeks

 TemperatureHumidityPressure
High91 °F (Aug 24, 1:30 PM)100% (Aug 16, 2:00 AM)30.24 "Hg (Aug 16, 2:00 AM)
Low57 °F (Aug 14, 5:30 AM)21% (Aug 24, 4:30 PM)29.80 "Hg (Aug 18, 4:00 PM)
Average75 °F59%30.06 "Hg
* Reported Aug 13 9:00 PM — Aug 28 9:30 PM, Nîmes, Weather by CustomWeather, © 2016

Note: Actual official high and low records may vary slightly from our data, if they occured in-between our weather recording intervals... More about our weather records

Advertising

Nîmes Weather History for the Previous 24 Hours

Scroll right to see more
 ConditionsComfort  
Time TempWeatherWind HumidityBarometerVisibility
9:30 PM
Sun, Aug 28
73 °FPassing clouds.3 mph89%30.07 "HgN/A
9:00 PM73 °FPassing clouds.6 mph83%30.07 "HgN/A
8:30 PM75 °FSunny.7 mph83%30.07 "Hg10 mi
8:00 PM77 °FPassing clouds.9 mph79%30.07 "HgN/A
7:30 PM79 °FSunny.10 mph74%30.07 "Hg10 mi
7:00 PM81 °FPassing clouds.9 mph70%30.07 "HgN/A
6:30 PM82 °FPassing clouds.8 mph66%30.07 "HgN/A
6:00 PM84 °FPassing clouds.8 mph62%30.07 "HgN/A
5:30 PM84 °FPassing clouds.9 mph58%30.07 "HgN/A
5:00 PM86 °FPassing clouds.10 mph52%30.07 "HgN/A
4:30 PM86 °FPassing clouds.8 mph52%30.07 "HgN/A
4:00 PM86 °FPassing clouds.7 mph55%30.07 "HgN/A
3:30 PM86 °FSunny.7 mph55%30.07 "Hg10 mi
3:00 PM86 °FPassing clouds.6 mph52%30.09 "HgN/A
2:30 PM86 °FPassing clouds.8 mph55%30.09 "HgN/A
2:00 PM84 °FPassing clouds.9 mph55%30.09 "HgN/A
1:30 PM84 °FSunny.5 mph48%30.09 "Hg10 mi
1:00 PM84 °FPassing clouds.5 mph51%30.09 "HgN/A
12:30 PM84 °FSunny.3 mph48%30.12 "Hg10 mi
12:00 PM82 °FSunny.5 mph51%30.12 "Hg10 mi
11:30 AM82 °FSunny.2 mph55%30.12 "Hg10 mi
11:00 AM79 °FPassing clouds.3 mph61%30.12 "HgN/A
10:30 AM79 °FSunny.3 mph58%30.12 "Hg10 mi
10:00 AM77 °FSunny.2 mph61%30.12 "Hg10 mi
9:30 AM73 °FPassing clouds.3 mph78%30.12 "HgN/A
9:00 AM72 °FSunny.1 mph83%30.12 "Hg10 mi
8:30 AM68 °FClear.No wind94%30.12 "Hg4 mi
8:00 AM64 °FFog.1 mph100%30.12 "Hg2 mi
7:30 AM61 °FFog.1 mph100%30.12 "Hg1 mi
7:00 AM63 °FLight fog.No wind100%30.12 "Hg1 mi
6:30 AM61 °FLight fog.2 mph100%30.09 "Hg1 mi
6:00 AM63 °FLight fog.No wind94%30.09 "Hg1 mi
5:30 AM63 °FFog.1 mph100%30.09 "Hg3 mi
5:00 AM63 °FFog.No wind100%30.09 "Hg3 mi
4:30 AM63 °FPassing clouds.1 mph100%30.09 "Hg5 mi
4:00 AM64 °FLight fog.No wind94%30.09 "Hg3 mi
3:30 AM64 °FFog.2 mph94%30.09 "Hg2 mi
2:30 AM66 °FFog.No wind94%30.12 "Hg2 mi
1:30 AM68 °FClear.2 mph94%30.12 "Hg4 mi
1:00 AM68 °FClear.3 mph94%30.12 "Hg4 mi
12:30 AM68 °FClear.2 mph94%30.12 "Hg5 mi
12:00 AM70 °FClear.2 mph88%30.12 "Hg10 mi
11:30 PM
Sat, Aug 27
70 °FClear.2 mph88%30.12 "Hg10 mi
11:00 PM70 °FClear.2 mph88%30.12 "Hg10 mi
10:30 PM70 °FClear.3 mph83%30.12 "Hg10 mi
10:00 PM72 °FClear.3 mph78%30.12 "Hg10 mi
Weather by CustomWeather, © 2016

See weather overviewHow to use our weather pages